Regional Weather Roundup
Issued by NWS

Home | Current Version | Previous Version | Text Only | Print | Product List | Glossary Off
Versions: 1 2 3 4 5 6 7 8 9 10 11 12 13 14 15 16 17 18 19 20 21 22 23 24 25 26 27 28 29 30 31 32 33 34 35 36 37 38 39 40 41 42 43 44 45 46 47 48 49 50

000
ASUS43 KMPX 120810
RWRMN
WEATHER ROUNDUP FOR MINNESOTA
NATIONAL WEATHER SERVICE TWIN CITIES/CHANHASSEN MN
200 AM CST FRI FEB 12 2016


NOTE: "FAIR" INDICATES FEW OR NO CLOUDS BELOW 12,000 FEET WITH NO
SIGNIFICANT WEATHER AND/OR OBSTRUCTIONS TO VISIBILITY. N/A MEANS
CURRENT SKY AND/OR WEATHER CONDITIONS ARE NOT AVAILABLE.

MNZ060>063-068>070-120900-
   Twin Cities Metro

CITY           SKY/WX    TMP DP  RH WIND       PRES   REMARKS
TWIN CITIES    CLOUDY    14   8  77 W9        30.20S WCI   2
ST PAUL        CLOUDY    15   9  76 W9        30.21F WCI   3
CRYSTAL        CLOUDY    15   9  76 NW10      30.19S WCI   2
BLAINE         CLOUDY    16  10  79 W6        30.19S WCI   7
LAKEVILLE      CLOUDY    12  10  92 W6        30.19S WCI   3
EDEN PRAIRIE   CLOUDY    16   8  71 W7        30.20S WCI   6
SOUTH ST PAUL  CLOUDY    16   9  74 W6        30.20S WCI   7
LAKE ELMO      CLOUDY    16  10  79 W7        30.19S WCI   6
$$
MNZ001>005-007-008-013>017-022>024-027-028-120900-
   Northwest Minnesota

CITY           SKY/WX    TMP DP  RH WIND       PRES   REMARKS
BEMIDJI        CLEAR     -1  -5  82 NW12      30.21R WCI -18
HALLOCK        CLEAR      0  -8  71 NW14      30.36R WCI -19
ROSEAU         CLOUDY    -6 -11  77 NW7       30.28R WCI -20
WARROAD        CLEAR     -4  -9  77 NW10G17   30.26R WCI -21
THIEF RVR FALL CLEAR      0 -15  50 NW12      30.30R WCI -18
CROOKSTON      CLEAR      3  -2  78 N15G21    30.35R WCI -15
FOSSTON        CLEAR      0  -6  78 NW8       30.27R WCI -15
DETROIT LAKES  FLURRIES   7   3  85 N13       30.26R WCI  -9
MOORHEAD       CLEAR      7   3  85 N10       30.33R WCI  -8
PARK RAPIDS    CLEAR      5  -3  69 NW12      30.20R WCI -11
MAHNOMEN       FAIR       2  -2  83 NW15      30.27S WCI -17
$$
MNZ006-009>011-018-025>026-120900-
   North Central Minnesota

CITY           SKY/WX    TMP DP  RH WIND       PRES   REMARKS
BAUDETTE       CLEAR     -4 -11  72 NW14      30.21R WCI -24
FLAG ISLAND    CLEAR     -6 -11  77 NW18      30.23R WCI -29
INTL FALLS     PTCLDY    -2  -9  72 NW12      30.16R WCI -20
WASKISH        CLEAR     -2  -6  84 W6        30.22R WCI -14
LONGVILLE      PTCLDY     7   0  72 NW6       30.18S WCI  -3
GRAND RAPIDS   CLOUDY     5  -2  72 NW17G24   30.15S WCI -14
CRANE LAKE     CLEAR      0  -6  78 NW7       30.14S WCI -13
ORR            CLEAR      0  -8  71 NW9       30.10S WCI -16
COOK           CLEAR      0  -6  78 W9        30.12S WCI -16
WALKER         FAIR       3  -4  73 NW10      30.20R WCI -13
$$
MNZ012-019>021-037-120900-
   Northeast Minnesota

CITY           SKY/WX    TMP DP  RH WIND       PRES   REMARKS
DULUTH         PTCLDY     6  -2  69 NW12G25   30.09R WCI  -9
ELY            CLEAR      0  -6  78 NW7       30.07S WCI -13
HIBBING        MOCLDY     1  -4  79 NW24G31   30.12R WCI -22
EVELETH        CLEAR      5  -4  66 NW12G22   30.11S WCI -11
DULUTH HARBOR  PTCLDY    12   1  62 W14       30.18R WCI  -3
TWO HARBORS    CLEAR     10   1  67 W7        30.07R WCI   0
SILVER BAY     CLEAR      9   0  66 W5        30.05R WCI   0
GRAND MARAIS     N/A      8  -2  63 W7        30.07S WCI  -3
G MARAIS ARPRT LGT SNOW   1  -8  66 NW9G17    29.93S WCI -14
$$
MNZ029>031-032-039>041-046>048-054>057-064-120900-
   West Central Minnesota

CITY           SKY/WX    TMP DP  RH WIND       PRES   REMARKS
FERGUS FALLS   CLOUDY     9   5  85 NW12      30.32R WCI  -6
WHEATON        CLOUDY    10   7  85 NW8       30.33R WCI  -1
MORRIS         CLOUDY     7   3  85 NW13      30.26S WCI  -9
ALEXANDRIA     PTCLDY     4  -1  80 NW8       30.22R WCI  -9
ELBOW LAKE     CLOUDY     8   5  89 W10       30.27R WCI  -7
WADENA         FLURRIES   7   1  78 NW8       30.21S WCI  -6
GLENWOOD       PTCLDY     7   3  85 NW12      30.23S WCI  -9
APPLETON       CLEAR      9   3  78 NW8       30.29R WCI  -4
BENSON         CLEAR      9   3  78 N6        30.26S WCI  -1
ORTONVILLE     PTCLDY     9   3  78 NW10      30.29S WCI  -6
MADISON        CLOUDY    12   7  79 NW8       30.29R WCI   1
WILLMAR        FAIR      14  10  85 NW12      30.24S WCI   0
$$
MNZ033>034-036-042>043-049>051-058-059-120900-
   Central Minnesota

CITY           SKY/WX    TMP DP  RH WIND       PRES   REMARKS
ST CLOUD       CLEAR      5   2  87 NW8       30.21R WCI  -8
SAUK CENTRE    FAIR       7   2  80 NW10      30.22S WCI  -7
PAYNESVILLE    CLOUDY    12   9  85 NW7       30.22S WCI   2
AITKIN         MIX PCPN  10   0  61 NW9       30.16S WCI  -2
PINE RIVER     MOCLDY     9   1  72 NW13      30.22R WCI  -7
BRAINERD       CLOUDY     9   1  70 NW14      30.20R WCI  -7
STAPLES        CLOUDY     7   1  78 NW13      30.21S WCI  -9
LONG PRAIRIE   FAIR       5   1  85 W8        30.21S WCI  -8
LITTLE FALLS   CLEAR     10   3  72 NW6       30.21S WCI   1
LITCHFIELD     CLOUDY    14  10  85 NW10      30.22S WCI   1
BUFFALO        CLOUDY    14   9  81 W9        30.22R WCI   1
MAPLE LAKE     CLOUDY    15  10  83 NW10      30.22R WCI   2
$$
MNZ037-044-045-052-053-120900-
   East Central Minnesota

CITY           SKY/WX    TMP DP  RH WIND       PRES   REMARKS
PRINCETON      CLEAR     10   7  85 W8        30.19S WCI  -1
MORA           PTCLDY    12   3  67 NW13G18   30.19S WCI  -3
CAMBRIDGE      MOCLDY    16   7  67 NW8       30.17S WCI   5
RUSH CITY      CLOUDY    13   7  76 NW9       30.18S WCI   1
MOOSE LAKE     CLOUDY    10   1  67 NW10G20   30.14F WCI  -3
HINCKLEY       CLOUDY    14   3  62 NW9       30.16F WCI   2
CLOQUET        FLURRIES   9   0  66 NW13G22   30.12S WCI  -7
MCGREGOR       CLOUDY    10   3  72 NW14G22   30.16S WCI  -5
$$
MNZ071>073-080-081-089-090-097-098-120900-
   Southwest Minnesota

CITY           SKY/WX    TMP DP  RH WIND       PRES   REMARKS
MONTEVIDEO     PTCLDY    10   7  85 N8        30.29R WCI  -1
GRANITE FALLS  CLOUDY    14  11  87 NW12      30.28R WCI   0
CANBY          PTCLDY    14  11  87 W9        30.29R WCI   2
MARSHALL       FLURRIES  13   9  84 N15       30.26R WCI  -3
REDWOOD FALLS  CLOUDY    15  11  83 NW10      30.24R WCI   2
OLIVIA         CLOUDY    16  12  86 NW10      30.24R WCI   3
PIPESTONE      CLOUDY    18  10  73 N7        30.21R WCI   8
WINDOM         FLURRIES  16  12  86 NW12      30.20S WCI   3
WORTHINGTON    CLOUDY    16  10  79 N20       30.22S WCI  -1
JACKSON        FLURRIES  18  12  79 NW10      30.20S WCI   6
TRACY          CLOUDY    15  13  89 NW14G20   30.24R WCI   1
SLAYTON        CLOUDY    15  13  94 NW13      30.22R WCI   0
$$
MNZ065>067-074>077-082>085-091>093-120900-
   South Central Minnesota

CITY           SKY/WX    TMP DP  RH WIND       PRES   REMARKS
MANKATO        CLOUDY    16  10  79 W9        30.21R WCI   4
NEW ULM        CLOUDY    16  12  86 NW9       30.22S WCI   4
ST JAMES       CLOUDY    18  14  86 NW9       30.23R WCI   6
FAIRMONT       CLOUDY    16  10  79 NW9       30.20S WCI   4
GLENCOE        CLOUDY    16  13  88 W7        30.21S WCI   6
FARIBAULT        N/A     12  10  92 W6        30.19S WCI   3
OWATONNA       FLURRIES  12   9  85 W7        30.18F WCI   2
WASECA         FLURRIES  14  12  92 W7        30.21S WCI   4
ALBERT LEA     LGT SNOW  14  10  85 W5        30.18S WCI   6
$$
MNZ078>079-086>088-094>096-120900-
   Southeast Minnesota

CITY           SKY/WX    TMP DP  RH WIND       PRES   REMARKS
ROCHESTER      LGT SNOW  12   8  84 W9        30.15F FOG     WCI   0
RED WING       CLOUDY    12   9  85 NW2       30.19S
STANTON        FLURRIES  15  10  80 W5        30.19R WCI   7
DODGE CENTER   LGT SNOW  12   9  85 W9        30.16S WCI   0
WINONA         LGT SNOW  16  10  79 NW3       30.21S
AUSTIN         LGT SNOW  12  10  92 W8        30.18R WCI   1
PRESTON        FLURRIES  11   7  81 W9        30.16F WCI  -1
$$
ABBREVIATIONS USED IN REMARKS
   TC - TEMPERATURES IN CELSIUS
  WCI - WIND CHILL INDEX
   HX - HEAT INDEX
  VSB - VISIBILITY
$$



USA.gov is the U.S. government's official web portal to all federal, state and local government web resources and services.